FENGYUN 1C DEB

Satellite information

Favourite Embed

Satellite Type and Status

DEBRISIN ORBIT

Key statistics

Satellite FENGYUN 1C DEB at a glance.

Uptime

9554

Days in orbit

Revolutions

≈ 13.5

Per day

Orbit

SSO

Sun Synchronous Orbit

Inclination

98.7

Latest

Satellite identification and parameters

Extended collection of information and parameters for FENGYUN 1C DEB.

Object identification

Identified? True

Debris? True

Object name: FENGYUN 1C DEB

International designator: 1999-025ACZ

Object number (NORAD): 30386

Object ID (CCSDS): 30386

Country: PEOPLES REPUBLIC OF CHINA (PRC)

Current information (Y/N): Y

RCS size: SMALL

Orbital parameters

Period: 106.275 minutes

Inclination: 98.6956 deg

SMA: 7432.13 km

Apoapsis: 1280.052 km

Periapsis: 827.938 km

RAAN: 100.3689 deg

Eccentricy: 0.0304162

Argument of periapsis: 211.5038 deg

Mean anomaly: 303.8699 deg

Mean motion: 13.54979776 rev/day

Mean motion (dot): 0.00000823 rev/day2

B* drag term: 0.00093025 1/REarth

Two-line elements (TLE)

Creation date: July 5, 2025, 6:46 a.m.

Reference frame: TEME

Reference center: EARTH

Epoch: July 5, 2025, 6:03 a.m. UTC

TLE line 0: 0 FENGYUN 1C DEB

TLE line 1: 1 30386U 99025ACZ 25186.25261637 .00000823 00000-0 93025-3 0 9994

TLE line 2: 2 30386 98.6956 100.3689 0304162 211.5038 303.8699 13.54979776906773

Live tracking on map

Real-time ground track for satellite FENGYUN 1C DEB.

In-orbit conjunctions

A list of the most updated potential collisions computed for object FENGYUN 1C DEB.

Target Orbit TCA Probability of collision Miss distance Type
SL-3 R/B LEO 2025-06-12 11:01:26 0.0002696761 140.0 (m) ROCKET BODY
COSMOS 2218 LEO 2024-08-05 17:13:19 0.0001537135 338.0 (m) PAYLOAD

Associated space launch

Chinese polar orbiting meteorological satellite

FENGYUN 1C DEB was lifted into orbit during the mission ‘Long March 4B | Feng Yun 1C’, on board a Long March 4B space rocket.

The launch took place on May 10, 1999, 1:33 a.m. from Launch Complex 7.

For more information about the launch, click the button.

Launch to space Long March 4B | Feng Yun 1C
Long March 4B | Feng Yun 1C

Agency: N/A

Status: Launch Successful

Launch date: May 10, 1999, 1:33 a.m. UTC

Rocket: Long March 4B

Launch pad: Launch Complex 7

Location: Taiyuan Satellite Launch Center, People's Republic of China

...

Latest news about this satellite

There are no fresh news available about this satellite. Check back as we update our databases every day.


Newsletter sign-up

Weekly statistics, charts and insights to help you stay on top of the space industry.